PIMOHWEATHER Station Historical Data
Daily Summary for April 05, 2020 Units:  Metric    English   Both
Daily Weekly Monthly Yearly
  High: Low: Average:
Temperature: 36.0 °C 26.0 °C 30.3 °C
Dew Point: 24.0 °C 20.0 °C 21.7 °C
Humidity: 76% 46% 61%
Wind Speed: 33km/h 0km/h 8.2km/h
Wind Gust: 40km/h - -
Wind- - SE
Pressure: 1013.2 hPa 1007.5 hPa -
Precipitation: 0.00 mm    
 
 
Tabular Data for April 05, 2020
Time Temperature Dew Point Pressure Wind Wind Speed Wind Gust Humidity Rainfall Rate (Hourly) solar
00:04 28.0 °C 22.0 °C 1011.2 hPa SE 6 km/h 8 km/h 72% 0.00 mm 0.00 W/m2
00:09 28.0 °C 22.0 °C 1011.5 hPa ESE 7 km/h 8 km/h 73% 0.00 mm 0.00 W/m2
00:14 28.0 °C 22.0 °C 1011.5 hPa ESE 8 km/h 8 km/h 73% 0.00 mm 0.00 W/m2
00:19 27.0 °C 22.0 °C 1011.5 hPa SE 6 km/h 8 km/h 73% 0.00 mm 0.00 W/m2
00:24 27.0 °C 22.0 °C 1011.5 hPa SE 6 km/h 8 km/h 74% 0.00 mm 0.00 W/m2
00:29 27.0 °C 22.0 °C 1011.2 hPa SE 5 km/h 8 km/h 74% 0.00 mm 0.00 W/m2
00:34 27.0 °C 22.0 °C 1011.2 hPa SE 9 km/h 12 km/h 74% 0.00 mm 0.00 W/m2
00:39 27.0 °C 22.0 °C 1011.2 hPa SE 6 km/h 8 km/h 74% 0.00 mm 0.00 W/m2
00:44 27.0 °C 22.0 °C 1011.2 hPa SE 5 km/h 8 km/h 74% 0.00 mm 0.00 W/m2
00:49 27.0 °C 22.0 °C 1010.8 hPa SE 5 km/h 8 km/h 74% 0.00 mm 0.00 W/m2
00:54 27.0 °C 22.0 °C 1010.8 hPa ESE 3 km/h 4 km/h 74% 0.00 mm 0.00 W/m2
00:59 27.0 °C 22.0 °C 1011.2 hPa ESE 5 km/h 8 km/h 75% 0.00 mm 0.00 W/m2
01:04 27.0 °C 22.0 °C 1010.8 hPa SE 3 km/h 4 km/h 75% 0.00 mm 0.00 W/m2
01:09 27.0 °C 22.0 °C 1010.8 hPa Calm     75% 0.00 mm 0.00 W/m2
01:14 27.0 °C 22.0 °C 1010.8 hPa Calm     75% 0.00 mm 0.00 W/m2
01:19 27.0 °C 22.0 °C 1010.8 hPa Calm     75% 0.00 mm 0.00 W/m2
01:24 27.0 °C 22.0 °C 1010.8 hPa Calm     76% 0.00 mm 0.00 W/m2
01:29 27.0 °C 22.0 °C 1010.8 hPa Calm   4 km/h 75% 0.00 mm 0.00 W/m2
01:34 27.0 °C 22.0 °C 1010.8 hPa Calm   4 km/h 74% 0.00 mm 0.00 W/m2
01:39 27.0 °C 22.0 °C 1010.8 hPa Calm     74% 0.00 mm 0.00 W/m2
01:44 27.0 °C 22.0 °C 1010.5 hPa Calm     74% 0.00 mm 0.00 W/m2
01:49 27.0 °C 22.0 °C 1010.5 hPa Calm     73% 0.00 mm 0.00 W/m2
01:54 27.0 °C 22.0 °C 1010.5 hPa East 2 km/h 4 km/h 73% 0.00 mm 0.00 W/m2
01:59 27.0 °C 22.0 °C 1010.5 hPa Calm   4 km/h 73% 0.00 mm 0.00 W/m2
02:04 27.0 °C 22.0 °C 1010.5 hPa Calm     73% 0.00 mm 0.00 W/m2
02:09 27.0 °C 22.0 °C 1010.5 hPa ESE 3 km/h 4 km/h 73% 0.00 mm 0.00 W/m2
02:14 27.0 °C 22.0 °C 1010.5 hPa Calm   4 km/h 73% 0.00 mm 0.00 W/m2
02:19 27.0 °C 22.0 °C 1010.5 hPa Calm     73% 0.00 mm 0.00 W/m2
02:24 27.0 °C 22.0 °C 1010.5 hPa Calm   4 km/h 73% 0.00 mm 0.00 W/m2
02:29 27.0 °C 22.0 °C 1010.2 hPa ESE 1 km/h 4 km/h 73% 0.00 mm 0.00 W/m2
02:34 27.0 °C 22.0 °C 1010.2 hPa ESE 5 km/h 8 km/h 73% 0.00 mm 0.00 W/m2
02:39 27.0 °C 22.0 °C 1010.2 hPa SE 5 km/h 8 km/h 74% 0.00 mm 0.00 W/m2
02:44 27.0 °C 22.0 °C 1010.2 hPa ESE 4 km/h 12 km/h 74% 0.00 mm 0.00 W/m2
02:49 27.0 °C 22.0 °C 1010.2 hPa SSE 5 km/h 8 km/h 74% 0.00 mm 0.00 W/m2
02:54 27.0 °C 22.0 °C 1010.5 hPa SE 6 km/h 8 km/h 74% 0.00 mm 0.00 W/m2
02:59 27.0 °C 22.0 °C 1010.2 hPa East 3 km/h 4 km/h 73% 0.00 mm 0.00 W/m2
03:04 27.0 °C 21.0 °C 1010.5 hPa SE 2 km/h 4 km/h 73% 0.00 mm 0.00 W/m2
03:09 27.0 °C 21.0 °C 1010.2 hPa SE 6 km/h 8 km/h 73% 0.00 mm 0.00 W/m2
03:14 27.0 °C 21.0 °C 1010.2 hPa SE 6 km/h 8 km/h 72% 0.00 mm 0.00 W/m2
03:19 27.0 °C 21.0 °C 1010.5 hPa East 5 km/h 8 km/h 73% 0.00 mm 0.00 W/m2
03:24 27.0 °C 21.0 °C 1010.2 hPa SE 1 km/h 4 km/h 73% 0.00 mm 0.00 W/m2
03:29 27.0 °C 21.0 °C 1010.5 hPa SE 2 km/h 4 km/h 73% 0.00 mm 0.00 W/m2
03:34 27.0 °C 21.0 °C 1010.5 hPa SE 4 km/h 4 km/h 73% 0.00 mm 0.00 W/m2
03:39 27.0 °C 21.0 °C 1010.5 hPa ESE 3 km/h 4 km/h 73% 0.00 mm 0.00 W/m2
03:44 27.0 °C 21.0 °C 1010.5 hPa ESE 4 km/h 8 km/h 73% 0.00 mm 0.00 W/m2
03:49 26.0 °C 21.0 °C 1010.5 hPa ESE 5 km/h 8 km/h 72% 0.00 mm 0.00 W/m2
03:54 26.0 °C 21.0 °C 1010.5 hPa Calm     72% 0.00 mm 0.00 W/m2
03:59 26.0 °C 21.0 °C 1010.5 hPa Calm   4 km/h 72% 0.00 mm 0.00 W/m2
04:04 26.0 °C 21.0 °C 1010.5 hPa Calm   4 km/h 72% 0.00 mm 0.00 W/m2
04:09 26.0 °C 21.0 °C 1010.5 hPa East 5 km/h 8 km/h 73% 0.00 mm 0.00 W/m2
04:14 26.0 °C 21.0 °C 1010.2 hPa Calm   4 km/h 73% 0.00 mm 0.00 W/m2
04:19 26.0 °C 21.0 °C 1010.2 hPa Calm     73% 0.00 mm 0.00 W/m2
04:24 26.0 °C 21.0 °C 1010.5 hPa ESE 4 km/h 8 km/h 73% 0.00 mm 0.00 W/m2
04:29 26.0 °C 21.0 °C 1010.5 hPa Calm   4 km/h 72% 0.00 mm 0.00 W/m2
04:34 26.0 °C 21.0 °C 1010.2 hPa ESE 5 km/h 8 km/h 72% 0.00 mm 0.00 W/m2
04:39 26.0 °C 21.0 °C 1010.2 hPa ENE 4 km/h 8 km/h 72% 0.00 mm 0.00 W/m2
04:44 26.0 °C 21.0 °C 1010.5 hPa Calm   4 km/h 72% 0.00 mm 0.00 W/m2
04:49 26.0 °C 21.0 °C 1010.5 hPa SE 4 km/h 4 km/h 71% 0.00 mm 0.00 W/m2
04:54 26.0 °C 21.0 °C 1010.2 hPa ESE 4 km/h 8 km/h 71% 0.00 mm 0.00 W/m2
04:59 26.0 °C 21.0 °C 1010.5 hPa East 4 km/h 8 km/h 70% 0.00 mm 0.00 W/m2
05:04 26.0 °C 21.0 °C 1010.5 hPa ESE 3 km/h 4 km/h 71% 0.00 mm 0.00 W/m2
05:09 26.0 °C 21.0 °C 1010.8 hPa NE 3 km/h 4 km/h 71% 0.00 mm 0.00 W/m2
05:14 26.0 °C 21.0 °C 1010.5 hPa ESE 5 km/h 8 km/h 71% 0.00 mm 0.00 W/m2
05:19 26.0 °C 21.0 °C 1010.8 hPa East 6 km/h 8 km/h 71% 0.00 mm 0.00 W/m2
05:24 26.0 °C 21.0 °C 1010.8 hPa East 11 km/h 12 km/h 71% 0.00 mm 0.00 W/m2
05:29 26.0 °C 21.0 °C 1010.8 hPa East 5 km/h 8 km/h 71% 0.00 mm 0.00 W/m2
05:34 26.0 °C 20.0 °C 1011.2 hPa SE 3 km/h 4 km/h 71% 0.00 mm 0.00 W/m2
05:39 26.0 °C 20.0 °C 1011.2 hPa Calm     71% 0.00 mm 0.00 W/m2
05:44 26.0 °C 20.0 °C 1011.2 hPa Calm     71% 0.00 mm 0.00 W/m2
05:49 26.0 °C 20.0 °C 1011.2 hPa North 4 km/h 4 km/h 71% 0.00 mm 1.86 W/m2
05:54 26.0 °C 20.0 °C 1011.2 hPa Calm     71% 0.00 mm 5.16 W/m2
05:59 26.0 °C 20.0 °C 1011.2 hPa Calm     72% 0.00 mm 9.82 W/m2
06:04 26.0 °C 20.0 °C 1011.2 hPa Calm     71% 0.00 mm 17.01 W/m2
06:09 26.0 °C 20.0 °C 1011.5 hPa Calm     71% 0.00 mm 21.83 W/m2
06:14 26.0 °C 20.0 °C 1011.5 hPa Calm     71% 0.00 mm 26.77 W/m2
06:19 26.0 °C 20.0 °C 1011.5 hPa Calm     70% 0.00 mm 31.99 W/m2
06:24 26.0 °C 21.0 °C 1011.9 hPa NNE 2 km/h 4 km/h 71% 0.00 mm 34.91 W/m2
06:29 26.0 °C 20.0 °C 1011.9 hPa Calm     70% 0.00 mm 38.51 W/m2
06:34 26.0 °C 21.0 °C 1011.9 hPa Calm     70% 0.00 mm 42.07 W/m2
06:39 27.0 °C 21.0 °C 1011.9 hPa Calm     70% 0.00 mm 88.22 W/m2
06:44 27.0 °C 21.0 °C 1012.2 hPa Calm     69% 0.00 mm 153.06 W/m2
06:49 27.0 °C 21.0 °C 1012.2 hPa East 1 km/h 4 km/h 69% 0.00 mm 167.74 W/m2
06:54 28.0 °C 21.0 °C 1012.2 hPa ENE 3 km/h 4 km/h 67% 0.00 mm 180.39 W/m2
06:59 29.0 °C 21.0 °C 1012.2 hPa Calm     65% 0.00 mm 190.52 W/m2
07:04 29.0 °C 21.0 °C 1012.2 hPa NNE 4 km/h 4 km/h 64% 0.00 mm 201.85 W/m2
07:09 30.0 °C 22.0 °C 1012.2 hPa Calm     64% 0.00 mm 211.15 W/m2
07:14 30.0 °C 22.0 °C 1012.2 hPa Calm   4 km/h 62% 0.00 mm 218.81 W/m2
07:19 30.0 °C 22.0 °C 1012.2 hPa Calm   4 km/h 62% 0.00 mm 229.69 W/m2
07:24 31.0 °C 22.0 °C 1012.5 hPa SE 1 km/h 4 km/h 61% 0.00 mm 239.65 W/m2
07:29 31.0 °C 22.0 °C 1012.2 hPa SSE 6 km/h 8 km/h 62% 0.00 mm 248.48 W/m2
07:34 30.0 °C 22.0 °C 1012.5 hPa SE 8 km/h 8 km/h 63% 0.00 mm 255.41 W/m2
07:39 31.0 °C 22.0 °C 1012.9 hPa ENE 2 km/h 4 km/h 63% 0.00 mm 259.37 W/m2
07:44 31.0 °C 22.0 °C 1012.9 hPa ENE 5 km/h 8 km/h 61% 0.00 mm 265.29 W/m2
07:49 31.0 °C 22.0 °C 1012.9 hPa SE 5 km/h 8 km/h 61% 0.00 mm 277.45 W/m2
07:54 31.0 °C 22.0 °C 1012.9 hPa ENE 7 km/h 8 km/h 61% 0.00 mm 285.72 W/m2
07:59 31.0 °C 22.0 °C 1012.9 hPa ESE 5 km/h 8 km/h 60% 0.00 mm 292.99 W/m2
08:04 31.0 °C 22.0 °C 1012.9 hPa SE 9 km/h 12 km/h 61% 0.00 mm 303.88 W/m2
08:09 31.0 °C 22.0 °C 1012.9 hPa ESE 5 km/h 8 km/h 62% 0.00 mm 324.80 W/m2
08:14 31.0 °C 22.0 °C 1012.9 hPa SE 5 km/h 8 km/h 60% 0.00 mm 359.35 W/m2
08:19 31.0 °C 22.0 °C 1012.9 hPa NE 5 km/h 8 km/h 59% 0.00 mm 371.82 W/m2
08:24 31.0 °C 22.0 °C 1012.9 hPa NNE 9 km/h 12 km/h 63% 0.00 mm 384.23 W/m2
08:29 29.0 °C 21.0 °C 1012.9 hPa North 4 km/h 4 km/h 63% 0.00 mm 244.55 W/m2
08:34 30.0 °C 22.0 °C 1013.2 hPa ENE 8 km/h 8 km/h 63% 0.00 mm 417.87 W/m2
08:39 31.0 °C 22.0 °C 1013.2 hPa NNE 8 km/h 8 km/h 61% 0.00 mm 371.82 W/m2
08:44 30.0 °C 22.0 °C 1013.2 hPa NNE 5 km/h 8 km/h 61% 0.00 mm 362.99 W/m2
08:49 32.0 °C 22.0 °C 1013.2 hPa NE 5 km/h 8 km/h 60% 0.00 mm 379.09 W/m2
08:54 32.0 °C 23.0 °C 1013.2 hPa East 10 km/h 12 km/h 58% 0.00 mm 412.05 W/m2
08:59 32.0 °C 22.0 °C 1013.2 hPa NE 10 km/h 12 km/h 58% 0.00 mm 437.00 W/m2
09:04 31.0 °C 22.0 °C 1013.2 hPa North 6 km/h 8 km/h 60% 0.00 mm 339.77 W/m2
09:09 31.0 °C 22.0 °C 1013.2 hPa NE 6 km/h 8 km/h 60% 0.00 mm 462.74 W/m2
09:14 31.0 °C 23.0 °C 1013.2 hPa East 6 km/h 8 km/h 60% 0.00 mm 486.70 W/m2
09:19 32.0 °C 22.0 °C 1013.2 hPa ESE 5 km/h 8 km/h 59% 0.00 mm 536.66 W/m2
09:24 33.0 °C 23.0 °C 1013.2 hPa East 4 km/h 4 km/h 58% 0.00 mm 528.71 W/m2
09:29 33.0 °C 22.0 °C 1013.2 hPa NNE 12 km/h 16 km/h 58% 0.00 mm 464.55 W/m2
09:34 31.0 °C 22.0 °C 1013.2 hPa North 14 km/h 16 km/h 60% 0.00 mm 501.99 W/m2
09:39 32.0 °C 22.0 °C 1013.2 hPa East 5 km/h 8 km/h 59% 0.00 mm 500.37 W/m2
09:44 33.0 °C 22.0 °C 1013.2 hPa SE 10 km/h 12 km/h 56% 0.00 mm 509.62 W/m2
09:49 33.0 °C 23.0 °C 1012.9 hPa East 13 km/h 16 km/h 55% 0.00 mm 508.87 W/m2
09:54 34.0 °C 23.0 °C 1012.9 hPa South 5 km/h 8 km/h 55% 0.00 mm 482.44 W/m2
09:59 33.0 °C 23.0 °C 1012.9 hPa NNW 15 km/h 16 km/h 59% 0.00 mm 541.11 W/m2
10:04 32.0 °C 23.0 °C 1012.9 hPa NW 21 km/h 28 km/h 60% 0.00 mm 487.36 W/m2
10:09 31.0 °C 22.0 °C 1012.9 hPa NW 14 km/h 16 km/h 61% 0.00 mm 516.23 W/m2
10:14 31.0 °C 22.0 °C 1012.9 hPa NW 19 km/h 24 km/h 61% 0.00 mm 529.76 W/m2
10:19 31.0 °C 22.0 °C 1012.9 hPa NW 13 km/h 16 km/h 59% 0.00 mm 520.56 W/m2
10:24 31.0 °C 22.0 °C 1012.9 hPa NW 15 km/h 16 km/h 60% 0.00 mm 507.94 W/m2
10:29 32.0 °C 22.0 °C 1012.9 hPa North 15 km/h 20 km/h 59% 0.00 mm 503.68 W/m2
10:34 32.0 °C 22.0 °C 1012.9 hPa WNW 10 km/h 12 km/h 59% 0.00 mm 500.45 W/m2
10:39 32.0 °C 22.0 °C 1012.5 hPa SW 10 km/h 12 km/h 58% 0.00 mm 496.12 W/m2
10:44 32.0 °C 23.0 °C 1012.5 hPa West 10 km/h 12 km/h 59% 0.00 mm 362.97 W/m2
10:49 32.0 °C 22.0 °C 1012.5 hPa SSE 13 km/h 16 km/h 59% 0.00 mm 503.65 W/m2
10:54 32.0 °C 23.0 °C 1012.5 hPa SW 8 km/h 12 km/h 59% 0.00 mm 491.66 W/m2
10:59 32.0 °C 23.0 °C 1012.5 hPa WSW 10 km/h 12 km/h 58% 0.00 mm 377.11 W/m2
11:04 32.0 °C 23.0 °C 1012.5 hPa SSW 11 km/h 12 km/h 58% 0.00 mm 492.94 W/m2
11:09 32.0 °C 23.0 °C 1012.2 hPa WSW 10 km/h 16 km/h 58% 0.00 mm 489.34 W/m2
11:14 32.0 °C 23.0 °C 1012.2 hPa NW 10 km/h 20 km/h 59% 0.00 mm 480.61 W/m2
11:19 33.0 °C 23.0 °C 1012.2 hPa South 13 km/h 16 km/h 58% 0.00 mm 474.83 W/m2
11:24 33.0 °C 23.0 °C 1012.2 hPa SE 9 km/h 12 km/h 56% 0.00 mm 478.13 W/m2
11:29 33.0 °C 23.0 °C 1012.2 hPa South 10 km/h 16 km/h 57% 0.00 mm 480.70 W/m2
11:34 33.0 °C 23.0 °C 1012.2 hPa WNW 10 km/h 12 km/h 56% 0.00 mm 479.36 W/m2
11:39 33.0 °C 23.0 °C 1012.2 hPa West 16 km/h 24 km/h 56% 0.00 mm 484.69 W/m2
11:44 33.0 °C 23.0 °C 1012.2 hPa WNW 14 km/h 16 km/h 58% 0.00 mm 486.40 W/m2
11:49 33.0 °C 23.0 °C 1011.9 hPa WSW 14 km/h 20 km/h 56% 0.00 mm 484.03 W/m2
11:54 33.0 °C 23.0 °C 1011.5 hPa SSW 15 km/h 16 km/h 55% 0.00 mm 491.37 W/m2
11:59 33.0 °C 23.0 °C 1011.5 hPa South 10 km/h 12 km/h 55% 0.00 mm 483.10 W/m2
12:02 33.0 °C 23.0 °C 1011.5 hPa SSW 13 km/h 20 km/h 55% 0.00 mm 484.72 W/m2
12:14 34.0 °C 23.0 °C 1011.2 hPa SW 16 km/h 20 km/h 55% 0.00 mm 488.78 W/m2
12:19 33.0 °C 23.0 °C 1011.2 hPa West 10 km/h 16 km/h 55% 0.00 mm 488.09 W/m2
12:24 34.0 °C 23.0 °C 1011.2 hPa West 13 km/h 16 km/h 55% 0.00 mm 486.23 W/m2
12:29 34.0 °C 23.0 °C 1011.2 hPa WSW 13 km/h 20 km/h 55% 0.00 mm 486.21 W/m2
12:34 34.0 °C 24.0 °C 1011.2 hPa South 8 km/h 12 km/h 55% 0.00 mm 488.73 W/m2
12:39 34.0 °C 24.0 °C 1010.8 hPa South 10 km/h 12 km/h 54% 0.00 mm 493.03 W/m2
12:44 34.0 °C 24.0 °C 1010.8 hPa South 10 km/h 16 km/h 55% 0.00 mm 492.06 W/m2
12:49 34.0 °C 23.0 °C 1010.5 hPa SSW 9 km/h 12 km/h 56% 0.00 mm 490.73 W/m2
12:54 34.0 °C 24.0 °C 1010.5 hPa South 12 km/h 16 km/h 57% 0.00 mm 491.98 W/m2
12:59 33.0 °C 24.0 °C 1010.2 hPa South 14 km/h 16 km/h 58% 0.00 mm 488.88 W/m2
13:04 34.0 °C 24.0 °C 1010.2 hPa SSW 13 km/h 16 km/h 58% 0.00 mm 484.23 W/m2
13:09 34.0 °C 24.0 °C 1010.2 hPa SSW 13 km/h 16 km/h 56% 0.00 mm 491.37 W/m2
13:14 34.0 °C 24.0 °C 1010.2 hPa SSW 13 km/h 20 km/h 56% 0.00 mm 491.47 W/m2
13:19 34.0 °C 24.0 °C 1009.8 hPa SSW 14 km/h 20 km/h 56% 0.00 mm 489.78 W/m2
13:24 34.0 °C 24.0 °C 1009.8 hPa SSW 11 km/h 12 km/h 56% 0.00 mm 490.07 W/m2
13:29 34.0 °C 24.0 °C 1009.5 hPa SSW 14 km/h 16 km/h 56% 0.00 mm 491.00 W/m2
13:34 34.0 °C 24.0 °C 1009.8 hPa WNW 13 km/h 16 km/h 56% 0.00 mm 490.12 W/m2
13:39 34.0 °C 24.0 °C 1009.5 hPa SSW 14 km/h 16 km/h 56% 0.00 mm 488.02 W/m2
13:44 34.0 °C 24.0 °C 1009.5 hPa WNW 12 km/h 16 km/h 56% 0.00 mm 486.99 W/m2
13:49 34.0 °C 24.0 °C 1009.5 hPa SSW 12 km/h 16 km/h 55% 0.00 mm 488.51 W/m2
13:54 34.0 °C 24.0 °C 1009.5 hPa SSW 12 km/h 16 km/h 56% 0.00 mm 487.85 W/m2
13:59 34.0 °C 24.0 °C 1009.5 hPa SSW 14 km/h 16 km/h 56% 0.00 mm 481.22 W/m2
14:04 34.0 °C 24.0 °C 1009.1 hPa South 8 km/h 12 km/h 56% 0.00 mm 480.39 W/m2
14:09 35.0 °C 24.0 °C 1009.1 hPa SSW 9 km/h 12 km/h 54% 0.00 mm 484.37 W/m2
14:14 35.0 °C 24.0 °C 1008.8 hPa SSW 9 km/h 12 km/h 54% 0.00 mm 487.31 W/m2
14:19 35.0 °C 24.0 °C 1008.8 hPa South 15 km/h 16 km/h 54% 0.00 mm 486.11 W/m2
14:24 34.0 °C 24.0 °C 1008.8 hPa South 12 km/h 16 km/h 54% 0.00 mm 476.62 W/m2
14:29 34.0 °C 24.0 °C 1008.8 hPa South 10 km/h 12 km/h 55% 0.00 mm 472.75 W/m2
14:34 35.0 °C 24.0 °C 1008.8 hPa SW 10 km/h 12 km/h 54% 0.00 mm 469.52 W/m2
14:39 35.0 °C 24.0 °C 1008.5 hPa South 12 km/h 16 km/h 55% 0.00 mm 469.15 W/m2
14:44 34.0 °C 24.0 °C 1008.5 hPa SSW 13 km/h 16 km/h 55% 0.00 mm 463.53 W/m2
14:49 35.0 °C 24.0 °C 1008.5 hPa SSE 13 km/h 16 km/h 54% 0.00 mm 464.19 W/m2
14:54 36.0 °C 24.0 °C 1008.1 hPa SW 9 km/h 12 km/h 51% 0.00 mm 461.30 W/m2
14:59 36.0 °C 23.0 °C 1008.1 hPa SSW 5 km/h 8 km/h 49% 0.00 mm 467.39 W/m2
15:04 36.0 °C 23.0 °C 1008.1 hPa SE 28 km/h 32 km/h 49% 0.00 mm 463.14 W/m2
15:09 35.0 °C 22.0 °C 1008.1 hPa SE 22 km/h 24 km/h 49% 0.00 mm 450.09 W/m2
15:14 35.0 °C 22.0 °C 1008.1 hPa SE 25 km/h 28 km/h 50% 0.00 mm 430.99 W/m2
15:19 35.0 °C 22.0 °C 1008.1 hPa SE 19 km/h 24 km/h 49% 0.00 mm 425.09 W/m2
15:24 34.0 °C 22.0 °C 1008.1 hPa SSE 22 km/h 28 km/h 49% 0.00 mm 417.26 W/m2
15:29 35.0 °C 22.0 °C 1007.8 hPa SE 20 km/h 24 km/h 49% 0.00 mm 412.00 W/m2
15:34 35.0 °C 22.0 °C 1007.8 hPa SE 22 km/h 28 km/h 47% 0.00 mm 411.93 W/m2
15:39 35.0 °C 21.0 °C 1007.8 hPa ESE 15 km/h 20 km/h 47% 0.00 mm 401.01 W/m2
15:44 35.0 °C 22.0 °C 1007.8 hPa ESE 15 km/h 20 km/h 46% 0.00 mm 393.89 W/m2
15:49 35.0 °C 22.0 °C 1007.8 hPa ESE 13 km/h 16 km/h 47% 0.00 mm 389.81 W/m2
15:52 35.0 °C 21.0 °C 1007.8 hPa SE 22 km/h 24 km/h 47% 0.00 mm 378.14 W/m2
15:59 34.0 °C 21.0 °C 1007.8 hPa SE 27 km/h 36 km/h 48% 0.00 mm 367.42 W/m2
16:04 34.0 °C 21.0 °C 1007.8 hPa SE 23 km/h 28 km/h 48% 0.00 mm 351.25 W/m2
16:09 35.0 °C 22.0 °C 1007.8 hPa SE 19 km/h 24 km/h 47% 0.00 mm 344.00 W/m2
16:14 35.0 °C 22.0 °C 1007.5 hPa SSE 17 km/h 20 km/h 47% 0.00 mm 339.36 W/m2
16:19 34.0 °C 21.0 °C 1007.5 hPa SE 29 km/h 32 km/h 48% 0.00 mm 333.09 W/m2
16:24 34.0 °C 21.0 °C 1007.8 hPa SE 23 km/h 28 km/h 48% 0.00 mm 328.91 W/m2
16:29 34.0 °C 21.0 °C 1007.8 hPa SE 20 km/h 24 km/h 48% 0.00 mm 318.44 W/m2
16:34 34.0 °C 21.0 °C 1007.8 hPa SE 17 km/h 24 km/h 48% 0.00 mm 299.16 W/m2
16:39 34.0 °C 21.0 °C 1007.8 hPa SE 17 km/h 20 km/h 47% 0.00 mm 288.90 W/m2
16:44 34.0 °C 21.0 °C 1007.8 hPa SE 24 km/h 28 km/h 48% 0.00 mm 281.91 W/m2
16:49 34.0 °C 21.0 °C 1007.8 hPa SSE 22 km/h 24 km/h 48% 0.00 mm 268.23 W/m2
16:54 34.0 °C 21.0 °C 1007.8 hPa SE 26 km/h 32 km/h 48% 0.00 mm 249.22 W/m2
16:59 33.0 °C 21.0 °C 1008.1 hPa SE 25 km/h 32 km/h 48% 0.00 mm 241.02 W/m2
17:04 33.0 °C 21.0 °C 1007.8 hPa SE 28 km/h 32 km/h 48% 0.00 mm 222.67 W/m2
17:09 34.0 °C 21.0 °C 1007.8 hPa SE 22 km/h 28 km/h 49% 0.00 mm 213.40 W/m2
17:14 34.0 °C 21.0 °C 1007.8 hPa SE 9 km/h 12 km/h 49% 0.00 mm 69.43 W/m2
17:19 34.0 °C 21.0 °C 1008.1 hPa SE 33 km/h 40 km/h 49% 0.00 mm 62.60 W/m2
17:24 33.0 °C 21.0 °C 1008.1 hPa SE 12 km/h 20 km/h 49% 0.00 mm 58.36 W/m2
17:29 33.0 °C 22.0 °C 1008.1 hPa NE 16 km/h 20 km/h 52% 0.00 mm 54.98 W/m2
17:34 33.0 °C 23.0 °C 1008.1 hPa North 20 km/h 24 km/h 55% 0.00 mm 50.71 W/m2
17:39 33.0 °C 23.0 °C 1008.5 hPa NNE 17 km/h 20 km/h 55% 0.00 mm 47.06 W/m2
17:44 33.0 °C 23.0 °C 1008.8 hPa NNE 10 km/h 12 km/h 55% 0.00 mm 43.76 W/m2
17:49 33.0 °C 23.0 °C 1008.8 hPa NNE 10 km/h 12 km/h 55% 0.00 mm 36.40 W/m2
17:54 33.0 °C 21.0 °C 1008.8 hPa ENE 8 km/h 12 km/h 49% 0.00 mm 27.52 W/m2
17:59 33.0 °C 20.0 °C 1008.8 hPa ESE 10 km/h 12 km/h 46% 0.00 mm 19.11 W/m2
18:04 33.0 °C 20.0 °C 1008.8 hPa NE 6 km/h 8 km/h 46% 0.00 mm 10.22 W/m2
18:09 33.0 °C 20.0 °C 1008.8 hPa East 8 km/h 12 km/h 47% 0.00 mm 4.60 W/m2
18:14 32.0 °C 20.0 °C 1009.1 hPa NNW 8 km/h 12 km/h 48% 0.00 mm 0.99 W/m2
18:19 32.0 °C 20.0 °C 1009.1 hPa SSE 9 km/h 16 km/h 49% 0.00 mm 0.00 W/m2
18:24 32.0 °C 20.0 °C 1009.1 hPa ENE 10 km/h 12 km/h 49% 0.00 mm 0.00 W/m2
18:29 32.0 °C 20.0 °C 1009.1 hPa NE 10 km/h 12 km/h 49% 0.00 mm 0.00 W/m2
18:34 32.0 °C 20.0 °C 1009.5 hPa NNE 7 km/h 8 km/h 50% 0.00 mm 0.00 W/m2
18:39 32.0 °C 20.0 °C 1009.5 hPa SE 6 km/h 8 km/h 51% 0.00 mm 0.00 W/m2
18:44 32.0 °C 20.0 °C 1009.5 hPa SSE 8 km/h 12 km/h 51% 0.00 mm 0.00 W/m2
18:49 32.0 °C 20.0 °C 1009.5 hPa SSE 7 km/h 8 km/h 51% 0.00 mm 0.00 W/m2
18:54 32.0 °C 20.0 °C 1009.5 hPa ESE 9 km/h 12 km/h 51% 0.00 mm 0.00 W/m2
18:59 32.0 °C 20.0 °C 1009.8 hPa East 12 km/h 16 km/h 51% 0.00 mm 0.00 W/m2
19:04 31.0 °C 20.0 °C 1009.8 hPa ESE 10 km/h 16 km/h 51% 0.00 mm 0.00 W/m2
19:09 31.0 °C 20.0 °C 1009.8 hPa East 8 km/h 12 km/h 51% 0.00 mm 0.00 W/m2
19:14 31.0 °C 20.0 °C 1009.8 hPa East 11 km/h 16 km/h 52% 0.00 mm 0.00 W/m2
19:19 31.0 °C 20.0 °C 1009.8 hPa SSE 6 km/h 8 km/h 52% 0.00 mm 0.00 W/m2
19:24 31.0 °C 20.0 °C 1009.8 hPa East 10 km/h 12 km/h 53% 0.00 mm 0.00 W/m2
19:29 31.0 °C 20.0 °C 1010.2 hPa East 9 km/h 12 km/h 53% 0.00 mm 0.00 W/m2
19:34 31.0 °C 20.0 °C 1010.2 hPa East 10 km/h 12 km/h 54% 0.00 mm 0.00 W/m2
19:39 31.0 °C 20.0 °C 1010.2 hPa East 10 km/h 16 km/h 54% 0.00 mm 0.00 W/m2
19:44 31.0 °C 20.0 °C 1010.2 hPa ENE 10 km/h 16 km/h 54% 0.00 mm 0.00 W/m2
19:49 31.0 °C 20.0 °C 1010.5 hPa ESE 12 km/h 16 km/h 54% 0.00 mm 0.00 W/m2
19:54 31.0 °C 21.0 °C 1010.5 hPa East 14 km/h 16 km/h 55% 0.00 mm 0.00 W/m2
19:59 31.0 °C 21.0 °C 1010.5 hPa ESE 6 km/h 12 km/h 55% 0.00 mm 0.00 W/m2
20:04 30.0 °C 21.0 °C 1010.5 hPa East 4 km/h 8 km/h 56% 0.00 mm 0.00 W/m2
20:09 30.0 °C 21.0 °C 1010.5 hPa SE 5 km/h 8 km/h 56% 0.00 mm 0.00 W/m2
20:14 30.0 °C 21.0 °C 1010.5 hPa East 6 km/h 12 km/h 56% 0.00 mm 0.00 W/m2
20:19 30.0 °C 20.0 °C 1010.5 hPa SE 3 km/h 8 km/h 55% 0.00 mm 0.00 W/m2
20:24 30.0 °C 20.0 °C 1010.8 hPa SE 2 km/h 4 km/h 56% 0.00 mm 0.00 W/m2
20:29 30.0 °C 20.0 °C 1010.8 hPa SE 7 km/h 8 km/h 56% 0.00 mm 0.00 W/m2
20:34 30.0 °C 20.0 °C 1010.8 hPa SE 1 km/h 4 km/h 56% 0.00 mm 0.00 W/m2
20:39 30.0 °C 20.0 °C 1010.8 hPa ESE 5 km/h 8 km/h 56% 0.00 mm 0.00 W/m2
20:44 30.0 °C 20.0 °C 1010.8 hPa ESE 6 km/h 8 km/h 56% 0.00 mm 0.00 W/m2
20:49 30.0 °C 20.0 °C 1010.8 hPa ESE 5 km/h 8 km/h 57% 0.00 mm 0.00 W/m2
20:54 30.0 °C 20.0 °C 1011.2 hPa SE 8 km/h 12 km/h 57% 0.00 mm 0.00 W/m2
20:59 30.0 °C 20.0 °C 1011.2 hPa SE 5 km/h 8 km/h 57% 0.00 mm 0.00 W/m2
21:04 30.0 °C 20.0 °C 1011.2 hPa East 8 km/h 12 km/h 58% 0.00 mm 0.00 W/m2
21:09 30.0 °C 20.0 °C 1011.2 hPa ESE 5 km/h 8 km/h 58% 0.00 mm 0.00 W/m2
21:14 29.0 °C 21.0 °C 1011.2 hPa SE 4 km/h 8 km/h 59% 0.00 mm 0.00 W/m2
21:19 29.0 °C 21.0 °C 1011.2 hPa SE 6 km/h 8 km/h 60% 0.00 mm 0.00 W/m2
21:24 29.0 °C 21.0 °C 1011.5 hPa East 6 km/h 8 km/h 60% 0.00 mm 0.00 W/m2
21:29 29.0 °C 21.0 °C 1011.5 hPa ESE 4 km/h 8 km/h 61% 0.00 mm 0.00 W/m2
21:34 29.0 °C 21.0 °C 1011.5 hPa ESE 8 km/h 12 km/h 61% 0.00 mm 0.00 W/m2
21:39 29.0 °C 21.0 °C 1011.5 hPa ENE 5 km/h 8 km/h 61% 0.00 mm 0.00 W/m2
21:44 29.0 °C 21.0 °C 1011.5 hPa SSE 7 km/h 8 km/h 61% 0.00 mm 0.00 W/m2
21:49 29.0 °C 21.0 °C 1011.9 hPa East 5 km/h 8 km/h 62% 0.00 mm 0.00 W/m2
21:54 29.0 °C 21.0 °C 1011.9 hPa East 5 km/h 8 km/h 63% 0.00 mm 0.00 W/m2
21:59 29.0 °C 21.0 °C 1011.9 hPa SSE 6 km/h 8 km/h 63% 0.00 mm 0.00 W/m2
22:04 29.0 °C 21.0 °C 1011.9 hPa ESE 8 km/h 12 km/h 63% 0.00 mm 0.00 W/m2
22:09 29.0 °C 21.0 °C 1011.9 hPa ESE 10 km/h 12 km/h 64% 0.00 mm 0.00 W/m2
22:14 29.0 °C 21.0 °C 1012.2 hPa East 6 km/h 8 km/h 64% 0.00 mm 0.00 W/m2
22:19 28.0 °C 21.0 °C 1011.9 hPa East 8 km/h 12 km/h 64% 0.00 mm 0.00 W/m2
22:24 29.0 °C 21.0 °C 1012.2 hPa SSE 5 km/h 8 km/h 64% 0.00 mm 0.00 W/m2
22:29 28.0 °C 21.0 °C 1012.2 hPa ESE 5 km/h 8 km/h 65% 0.00 mm 0.00 W/m2
22:34 28.0 °C 21.0 °C 1012.2 hPa SSE 3 km/h 4 km/h 65% 0.00 mm 0.00 W/m2
22:39 28.0 °C 21.0 °C 1012.2 hPa East 9 km/h 12 km/h 65% 0.00 mm 0.00 W/m2
22:44 28.0 °C 21.0 °C 1012.2 hPa East 7 km/h 12 km/h 65% 0.00 mm 0.00 W/m2
22:49 28.0 °C 21.0 °C 1011.9 hPa ESE 7 km/h 12 km/h 65% 0.00 mm 0.00 W/m2
22:54 28.0 °C 21.0 °C 1011.9 hPa East 7 km/h 8 km/h 65% 0.00 mm 0.00 W/m2
22:59 28.0 °C 21.0 °C 1011.9 hPa SE 7 km/h 8 km/h 65% 0.00 mm 0.00 W/m2
23:04 28.0 °C 21.0 °C 1011.9 hPa ESE 8 km/h 12 km/h 66% 0.00 mm 0.00 W/m2
23:09 28.0 °C 21.0 °C 1011.9 hPa East 6 km/h 8 km/h 66% 0.00 mm 0.00 W/m2
23:14 28.0 °C 21.0 °C 1011.9 hPa ENE 5 km/h 8 km/h 66% 0.00 mm 0.00 W/m2
23:19 28.0 °C 21.0 °C 1011.5 hPa ESE 4 km/h 8 km/h 66% 0.00 mm 0.00 W/m2
23:24 28.0 °C 21.0 °C 1011.9 hPa ESE 6 km/h 12 km/h 66% 0.00 mm 0.00 W/m2
23:29 28.0 °C 21.0 °C 1011.9 hPa NNW 6 km/h 8 km/h 66% 0.00 mm 0.00 W/m2
23:34 28.0 °C 21.0 °C 1011.9 hPa ENE 8 km/h 16 km/h 66% 0.00 mm 0.00 W/m2
23:39 28.0 °C 21.0 °C 1011.5 hPa SE 5 km/h 8 km/h 66% 0.00 mm 0.00 W/m2
23:44 28.0 °C 21.0 °C 1011.5 hPa East 5 km/h 8 km/h 67% 0.00 mm 0.00 W/m2
23:49 28.0 °C 21.0 °C 1011.2 hPa East 6 km/h 8 km/h 67% 0.00 mm 0.00 W/m2
23:54 28.0 °C 21.0 °C 1011.2 hPa East 5 km/h 8 km/h 67% 0.00 mm 0.00 W/m2
23:59 28.0 °C 21.0 °C 1011.5 hPa SE 6 km/h 8 km/h 67% 0.00 mm 0.00 W/m2
PIMOHWEATHER Philippines
Compliments of Weather Underground - 2 mb